Retour au catalogue

COSMOS 2251 DEB

ActifLEO
NORAD 37101·DEBRIS·🇷🇺 Russia

Lancé Jun 16, 1993 depuis Plesetsk Cosmodrome

Loading…

Prochains Passages (prochaines 24 heures)

TLE

FraisSource: Space-Track

Époque: Sep 14, 2026, 10:49 UTC

1 37101U 93036BFX 26257.45088754  .00003007  00000-0  52400-3 0  9990
2 37101  74.0295 281.9222 0045448 296.5608  63.0906 14.67827215697142

Suivez COSMOS 2251 DEB en temps réel avec AllMySat

Download on the App Store